Regional Weather Roundup
Issued by NWS

Home | Current Version | Previous Version | Text Only | Print | Product List | Glossary Off
Versions: 1 2 3 4 5 6 7 8 9 10 11 12 13 14 15 16 17 18 19 20 21 22 23 24 25 26 27 28 29 30 31 32 33 34 35 36 37 38 39 40 41 42 43 44 45 46 47 48 49 50

000
ASUS45 KPSR 281310
RWRAZ

ARIZONA REGIONAL HOURLY WEATHER ROUNDUP
NATIONAL WEATHER SERVICE TUCSON AZ
600 AM MST WED JUN 28 2017

NOTE: FAIR INDICATES FEW OR NO CLOUDS BELOW 12,000 FEET WITH NO
SIGNIFICANT WEATHER AND/OR OBSTRUCTIONS TO VISIBILITY.

AZZ001>003-036-281400-
NORTHWEST ARIZONA

CITY           SKY/WX    TMP DP  RH WIND       PRES   REMARKS
BULLHEAD CITY  CLEAR     86  23  10 SE8       29.69R
KINGMAN        CLEAR     72  21  14 SE9       29.87R
$$

AZZ004>008-015-016-018-281400-
NORTH CENTRAL ARIZONA

CITY           SKY/WX    TMP DP  RH WIND       PRES   REMARKS
GRAND CANYON   PTCLDY    41  16  36 CALM      30.14R
PRESCOTT       CLEAR     63  21  20 S3        30.05R
FLAGSTAFF      CLEAR     42  15  33 CALM      30.18R
PAYSON         SUNNY     63  25  23 CALM      30.11R
PAGE           CLEAR     72  25  17 CALM      29.90R
$$

AZZ009>014-017-281400-
NORTHEAST ARIZONA

CITY           SKY/WX    TMP DP  RH WIND       PRES   REMARKS
WINSLOW        CLEAR     67  20  16 S5        30.02R
SAINT JOHNS    CLEAR     67  22  18 SW15      30.08R
WINDOW ROCK    PTCLDY    58  17  20 CALM      30.15R
SHOW LOW       CLEAR     63  25  23 S13       30.17R
$$

AZZ023-281400-
GREATER PHOENIX AREA

CITY           SKY/WX    TMP DP  RH WIND       PRES   REMARKS
PHOENIX        PTCLDY    85  43  22 E7        29.78R
BUCKEYE        SUNNY     79  45  29 CALM      29.79R
GLENDALE       CLEAR     84  48  28 CALM      29.79
LUKE AFB       CLEAR     80  47  31 W6        29.78R
DEER VALLEY    CLEAR     79  44  28 NE3       29.80R
SCOTTSDALE     CLEAR     83  46  27 NE3       29.82R
MESA-FALCON    CLEAR     84  45  24 NE5       29.81R
MESA-GATEWAY   CLEAR     77  39  25 NE7       29.82R
CHANDLER       CLEAR     81  41  24 VRB5      29.80
$$

AZZ027-028-281400-
SOUTHWEST MARICOPA COUNTY AND PINAL COUNTY

CITY           SKY/WX    TMP DP  RH WIND       PRES   REMARKS
CASA GRANDE    CLEAR     76  48  37 N3          N/A
$$

AZZ503-504-507>509-281400-
SOUTHEAST ARIZONA

CITY           SKY/WX    TMP DP  RH WIND       PRES   REMARKS
TUCSON         CLEAR     82  50  32 SE10G26   29.95R
DAVIS-MONTHAN  CLEAR     77  43  29 S7        29.93R
RYAN FIELD     SUNNY     77  39  25 E8        29.93
NOGALES        CLEAR     68  51  54 SE5       30.05R
SIERRA VISTA   CLEAR     69  46  42 E5        30.09R
DOUGLAS        CLEAR     68  56  65 SE8       30.06R
SAFFORD        CLEAR     69  24  18 CALM      29.94R
$$

AZZ020-021-025-026-031-281400-
SOUTHWEST ARIZONA

CITY           SKY/WX    TMP DP  RH WIND       PRES   REMARKS
YUMA           CLEAR     78  68  71 S12       29.71R
$$

CAZ031-033-041-043-047-048-061-281400-
SOUTHERN CALIFORNIA

CITY           SKY/WX    TMP DP  RH WIND       PRES   REMARKS
DOWNTOWN L.A.  CLEAR     63  59  87 CALM      29.86R
L.A. AIRPORT   MOCLDY    62  59  90 W3        29.87R
SAN DIEGO      CLOUDY    63  58  83 CALM      29.90R
BURBANK        CLEAR     63  55  75 CALM      29.87R
ONTARIO        PTCLDY    62  52  69 CALM      29.87R
RIVERSIDE      CLEAR     62  51  67 CALM      29.88R
PALM SPRINGS   CLEAR     75  43  31 SW6       29.71R
EL CENTRO NAS  CLEAR     72  59  63 SE7       29.70R
IMPERIAL       CLEAR     78  66  66 SE7       29.68R
BLYTHE         CLEAR     75  27  17 NW3       29.70R
NEEDLES        CLEAR     88  20   8 SW6       29.70R
$$

NVZ020-UTZ003-281400-
SOUTHERN NEVADA-UTAH

CITY           SKY/WX    TMP DP  RH WIND       PRES   REMARKS
LAS VEGAS      CLEAR     82  23  11 SW5       29.74R
SALT LAKE CITY CLEAR     70  40  33 SE10      29.87S
$$

NMZ009-TXZ055-281400-
NEW MEXICO-WEST TEXAS

CITY           SKY/WX    TMP DP  RH WIND       PRES   REMARKS
ALBUQUERQUE    MOSUNNY   66  33  29 S9        30.06R
EL PASO        MOSUNNY   80  52  37 SE13      29.98R
$$


........................KEY........................
SKY/WX - SKY CONDITION/WEATHER
TMP    - TEMPERATURE IN FAHRENHEIT
DP     - DEWPOINT IN FAHRENHEIT
RH     - RELATIVE HUMIDITY IN PERCENT
WIND   - DIRECTION AND SPEED IN MILES PER HOUR (MPH)
VRB    - VARIABLE WIND DIRECTION
PRES   - MEAN SEA LEVEL PRESSURE IN INCHES OF MERCURY
         F - FALLING PRESSURE   R - RISING PRESSURE
         S - STEADY PRESSURE
VSB    - VISIBILITY IN MILES
HX     - HEAT INDEX IN FAHRENHEIT
WCI    - WIND CHILL INDEX IN FAHRENHEIT
TC     - TEMPERATURE IN CELSIUS WHICH IS ALSO KNOWN AS
         TEMPERATURE IN CENTIGRADE
AFB    - AIR FORCE BASE
         LUKE AFB IS LUKE AIR FORCE BASE
         DAVIS-MONTHAN IS DAVIS-MONTHAN AIR FORCE BASE
NAS    - NAVAL AIR STATION
         EL CENTRO NAS IS EL CENTRO NAVAL AIR STATION
N/A    - NOT AVAILABLE





USA.gov is the U.S. government's official web portal to all federal, state and local government web resources and services.